Weather History for Crockett, TX

Change the Weather History Date:

Monday, December 16, 2013

  Actual Average (KLFK) Record (KLFK)
Temperature  
Mean Temperature 48 °F 50 °F  
Max Temperature 64 °F 61 °F 82 °F (1924)
Min Temperature 32 °F 39 °F 15 °F (1955)
Degree Days  
Heating Degree Days 17 16  
Month to date heating degree days 226  
Since 1 July heating degree days 533  
Cooling Degree Days 0 0  
Month to date cooling degree days 4  
Year to date cooling degree days 2587  
Moisture  
Dew Point 35 °F    
Average Humidity 76    
Maximum Humidity 100    
Minimum Humidity 34    
Precipitation  
Precipitation 0.00 in 0.15 in 2.34 in (1994)
Month to date precipitation 2.38  
Year to date precipitation 46.89  
Snow  
Snow 0.00 in - - ()
Month to date snowfall  
Since 1 July snowfall  
Snow Depth -    
Sea Level Pressure  
Sea Level Pressure 30.30 in    
Wind  
Wind Speed 1 mph (SW)    
Max Wind Speed 7 mph    
Max Gust Speed -    
Visibility 10 miles    
Events      
T = Trace of Precipitation, MM = Missing Value Source: NWS Daily Summary

Daily Weather History Graph

Daily Weather History Graph

Search for Another Location

Airport:

Trip Planner

Search our weather history database for the weather conditions in past years. The results will help you decide how hot, cold, wet, or windy it might be!

Date:

Astronomy

Dec. 16, 2013 Rise Set
Actual Time 7:13 AM CST 5:21 PM CST
Civil Twilight 6:47 AM CST 5:47 PM CST
Nautical Twilight 6:16 AM CST 6:18 PM CST
Astronomical Twilight 5:47 AM CST 6:47 PM CST
Moon 5:08 PM CST (12/16) 6:26 AM CST (12/16)
Length of Visible Light 11h 00m
Length of Day
10h 07m
Full, 100% of the Moon is Illuminated
Dec 16
Full
Dec 17
Full
Dec 25
Last Quarter
Jan 1
New
Jan 7
First Quarter

Hourly Weather History & Observations

Time (CST) Temp. Dew Point Humidity Pressure Visibility Wind Dir Wind Speed Gust Speed Precip Events Conditions
12:15 AM 32.0 °F 32.0 °F 100% 30.34 in 10.0 mi Calm Calm - N/A   Clear
12:35 AM 32.0 °F 32.0 °F 100% 30.34 in 9.0 mi Calm Calm - N/A   Clear
12:55 AM 32.0 °F 32.0 °F 100% 30.34 in 7.0 mi Calm Calm - N/A   Clear
1:15 AM 32.0 °F 32.0 °F 100% 30.34 in 10.0 mi Calm Calm - N/A   Clear
1:35 AM 32.0 °F 32.0 °F 100% 30.34 in 10.0 mi Calm Calm - N/A   Clear
1:55 AM 32.0 °F 32.0 °F 100% 30.33 in 10.0 mi Calm Calm - N/A   Clear
2:15 AM 32.0 °F 32.0 °F 100% 30.32 in 10.0 mi Calm Calm - N/A   Clear
2:35 AM 32.0 °F 32.0 °F 100% 30.32 in 9.0 mi Calm Calm - N/A   Clear
2:55 AM 32.0 °F 32.0 °F 100% 30.32 in 7.0 mi Calm Calm - N/A   Clear
3:15 AM 32.0 °F 32.0 °F 100% 30.32 in 7.0 mi Calm Calm - N/A   Clear
3:35 AM 32.0 °F 30.2 °F 93% 30.32 in 10.0 mi Calm Calm - N/A   Clear
3:55 AM 32.0 °F 32.0 °F 100% 30.32 in 10.0 mi Calm Calm - N/A   Clear
4:15 AM 32.0 °F 32.0 °F 100% 30.32 in 10.0 mi Calm Calm - N/A   Clear
4:35 AM 32.0 °F 30.2 °F 93% 30.33 in 10.0 mi Calm Calm - N/A   Clear
4:55 AM 32.0 °F 30.2 °F 93% 30.33 in 10.0 mi Calm Calm - N/A   Clear
5:15 AM 32.0 °F 30.2 °F 93% 30.32 in 8.0 mi Calm Calm - N/A   Clear
5:35 AM 32.0 °F 30.2 °F 93% 30.32 in 10.0 mi Calm Calm - N/A   Clear
5:55 AM 32.0 °F 30.2 °F 93% 30.33 in 10.0 mi Calm Calm - N/A   Clear
6:15 AM 32.0 °F 30.2 °F 93% 30.33 in 9.0 mi Calm Calm - N/A   Clear
6:35 AM 32.0 °F 30.2 °F 93% 30.33 in 9.0 mi Calm Calm - N/A   Clear
6:55 AM 32.0 °F 32.0 °F 100% 30.33 in 9.0 mi Calm Calm - N/A   Clear
7:15 AM 32.0 °F 30.2 °F 93% 30.34 in 6.0 mi Calm Calm - N/A   Clear
7:35 AM 32.0 °F 30.2 °F 93% 30.34 in 8.0 mi Calm Calm - N/A   Clear
7:55 AM 32.0 °F 30.2 °F 93% 30.34 in 8.0 mi Calm Calm - N/A   Clear
8:15 AM 32.0 °F 32.0 °F 100% 30.35 in 10.0 mi Calm Calm - N/A   Clear
8:35 AM 33.8 °F 33.8 °F 100% 30.34 in 9.0 mi Calm Calm - N/A   Clear
8:55 AM 39.2 °F 37.4 °F 93% 30.35 in 10.0 mi Calm Calm - N/A   Clear
9:15 AM 42.8 °F 37.4 °F 81% 30.35 in 10.0 mi Calm Calm - N/A   Clear
9:35 AM 44.6 °F 37.4 °F 76% 30.36 in 10.0 mi Calm Calm - N/A   Clear
9:55 AM 48.2 °F 37.4 °F 66% 30.36 in 10.0 mi Calm Calm - N/A   Clear
10:15 AM 50.0 °F 39.2 °F 66% 30.36 in 10.0 mi Calm Calm - N/A   Clear
10:35 AM 53.6 °F 37.4 °F 54% 30.36 in 10.0 mi SSW 3.5 mph - N/A   Clear
10:55 AM 55.4 °F 37.4 °F 51% 30.35 in 10.0 mi Calm Calm - N/A   Clear
11:15 AM 57.2 °F 37.4 °F 48% 30.35 in 10.0 mi Calm Calm - N/A   Clear
11:35 AM 59.0 °F 37.4 °F 45% 30.33 in 10.0 mi Calm Calm - N/A   Clear
11:55 AM 60.8 °F 35.6 °F 39% 30.32 in 10.0 mi SW 5.8 mph - N/A   Clear
12:15 PM 60.8 °F 35.6 °F 39% 30.31 in 10.0 mi SW 5.8 mph - N/A   Clear
12:35 PM 62.6 °F 35.6 °F 37% 30.29 in 10.0 mi SSW 6.9 mph - N/A   Clear
12:55 PM 62.6 °F 35.6 °F 37% 30.28 in 10.0 mi SSW 5.8 mph - N/A   Clear
1:15 PM 62.6 °F 37.4 °F 39% 30.27 in 10.0 mi Calm Calm - N/A   Clear
1:35 PM 64.4 °F 37.4 °F 37% 30.26 in 10.0 mi SW 6.9 mph - N/A   Clear
1:55 PM 64.4 °F 37.4 °F 37% 30.26 in 10.0 mi SSW 5.8 mph - N/A   Clear
2:15 PM 64.4 °F 37.4 °F 37% 30.25 in 10.0 mi SW 4.6 mph - N/A   Clear
2:35 PM 64.4 °F 37.4 °F 37% 30.25 in 10.0 mi SSW 6.9 mph - N/A   Clear
2:55 PM 64.4 °F 37.4 °F 37% 30.25 in 9.0 mi SW 3.5 mph - N/A   Clear
3:15 PM 64.4 °F 35.6 °F 34% 30.24 in 10.0 mi SSW 5.8 mph - N/A   Clear
3:35 PM 64.4 °F 37.4 °F 37% 30.25 in 10.0 mi SW 5.8 mph - N/A   Clear
3:55 PM 64.4 °F 37.4 °F 37% 30.24 in 10.0 mi SW 5.8 mph - N/A   Clear
4:15 PM 64.4 °F 37.4 °F 37% 30.25 in 10.0 mi SW 4.6 mph - N/A   Clear
4:35 PM 62.6 °F 37.4 °F 39% 30.25 in 10.0 mi Calm Calm - N/A   Clear
4:55 PM 62.6 °F 35.6 °F 37% 30.25 in 10.0 mi Calm Calm - N/A   Clear
5:15 PM 59.0 °F 39.2 °F 48% 30.25 in 10.0 mi Calm Calm - N/A   Clear
5:35 PM 53.6 °F 41.0 °F 62% 30.25 in 10.0 mi Calm Calm - N/A   Clear
5:55 PM 48.2 °F 41.0 °F 76% 30.26 in 10.0 mi Calm Calm - N/A   Clear
6:15 PM 46.4 °F 41.0 °F 81% 30.26 in 10.0 mi Calm Calm - N/A   Clear
6:35 PM 44.6 °F 41.0 °F 87% 30.27 in 10.0 mi Calm Calm - N/A   Clear
6:55 PM 44.6 °F 39.2 °F 81% 30.28 in 10.0 mi Calm Calm - N/A   Clear
7:15 PM 42.8 °F 39.2 °F 87% 30.28 in 10.0 mi Calm Calm - N/A   Clear
7:35 PM 42.8 °F 37.4 °F 81% 30.28 in 10.0 mi Calm Calm - N/A   Clear
7:55 PM 42.8 °F 39.2 °F 87% 30.28 in 10.0 mi Calm Calm - N/A   Clear
8:15 PM 41.0 °F 37.4 °F 87% 30.28 in 10.0 mi Calm Calm - N/A   Clear
8:35 PM 41.0 °F 37.4 °F 87% 30.28 in 10.0 mi Calm Calm - N/A   Clear
8:55 PM 41.0 °F 37.4 °F 87% 30.29 in 10.0 mi Calm Calm - N/A   Clear
9:15 PM 39.2 °F 37.4 °F 93% 30.28 in 10.0 mi Calm Calm - N/A   Clear
9:35 PM 39.2 °F 37.4 °F 93% 30.29 in 10.0 mi Calm Calm - N/A   Clear
9:55 PM 39.2 °F 37.4 °F 93% 30.29 in 10.0 mi Calm Calm - N/A   Clear
10:15 PM 39.2 °F 37.4 °F 93% 30.29 in 10.0 mi Calm Calm - N/A   Clear
10:35 PM 39.2 °F 35.6 °F 87% 30.30 in 10.0 mi Calm Calm - N/A   Clear
10:55 PM 37.4 °F 35.6 °F 93% 30.29 in 10.0 mi Calm Calm - N/A   Clear
11:15 PM 41.0 °F 37.4 °F 87% 30.30 in 10.0 mi Calm Calm - N/A   Clear
11:55 PM 42.8 °F 37.4 °F 81% 30.29 in 10.0 mi Calm Calm - N/A   Clear